Flag for Australia Weather past 2 weeks in Mildura, Victoria, Australia

Now
62 °F

Scattered clouds.


Feels Like: 62 °F
Forecast: 46 / 62 °F
Wind: 7 mph from Northwest

Location: Mildura Airport

Current Time: May 30, 2015 at 1:32:42 PM

Latest Report: May 30, 2015 at 12:00 PM


Visibility: N/A

Pressure: 30.20 "Hg

Humidity: 57%

Dew point: 47 °F

Location of MilduraLocation

Historic Weather in Mildura — Graph

°F

Mildura temperature yesterday

Maximum temperature yesterday: 62 °F (at 1:00 PM)
Minimum temperature yesterday: 49 °F (at 6:00 AM)
Average temperature yesterday: 55 °F

Past Weeks' High & Low Weather Summary

 TemperatureHumidityPressure
High74 °F (May 18, 2:00 PM)98% (May 23, 8:00 AM)30.60 "Hg (May 23, 8:00 AM)
Low37 °F (May 24, 6:00 AM)34% (May 17, 3:00 PM)29.82 "Hg (May 19, 5:00 PM)
Average55 °F73%30.27 "Hg
* Reported May 15 12:00 Noon — May 30 12:00 Noon, Mildura, Weather by CustomWeather, © 2015

Note: Actual official high and low records may vary slightly from our data, if they occured in-between our weather recording intervals... More about our weather records

Advertising

Mildura weather history for previous 24 hours

 ConditionsComfort  
Time TempWeatherWind HumidityBarometerVisibility
12:00 PM
Sat, May 30
62 °FScattered clouds.7 mph57%30.20 "HgN/A
11:00 AM59 °FCool.5 mph63%30.24 "HgN/A
10:00 AM55 °FCool.3 mph74%30.24 "HgN/A
9:00 AM51 °FOvercast.5 mph84%30.25 "Hg22 mi
8:00 AM49 °FCool.5 mph90%30.24 "HgN/A
6:00 AM46 °FOvercast.3 mph93%30.23 "HgN/A
5:00 AM45 °FCool.No wind96%30.22 "HgN/A
4:00 AM46 °FCool.1 mph91%30.21 "HgN/A
3:00 AM48 °FOvercast.3 mph85%30.22 "HgN/A
2:00 AM51 °FCool.No wind83%30.23 "HgN/A
1:00 AM51 °FCool.5 mph84%30.24 "HgN/A
12:00 AM52 °FOvercast.No wind77%30.25 "HgN/A
11:00 PM
Fri, May 29
51 °FCool.2 mph82%30.26 "HgN/A
10:00 PM52 °FCool.No wind74%30.25 "HgN/A
9:00 PM49 °FOvercast.3 mph79%30.26 "HgN/A
8:00 PM50 °FCool.2 mph76%30.25 "HgN/A
7:00 PM52 °FCool.3 mph71%30.24 "HgN/A
6:00 PM56 °FOvercast.2 mph63%30.22 "HgN/A
5:00 PM58 °FRefreshingly cool.5 mph57%30.22 "HgN/A
4:00 PM60 °FRefreshingly cool.6 mph53%30.22 "HgN/A
3:00 PM61 °FPartly sunny.9 mph49%30.22 "Hg25 mi
2:00 PM62 °FRefreshingly cool.8 mph47%30.22 "HgN/A
1:00 PM62 °FRefreshingly cool.9 mph45%30.24 "HgN/A
Weather by CustomWeather, © 2015

See weather overviewHow to use our weather pages